User: anonymous   Login
Location: *
(49.9853°N, 3.5569°E)
Time: 01:34:43
(UTC+00:00)
Language:

Cosmos 405 Rocket - Orbit

View from above orbital plane
View from above orbital plane
View from above satellite
View from above satellite

Ground track
Ground track

The orbit data is extracted from the following two-line orbital elements,

1 05118U 71028B   21024.57536547  .00000799  00000-0  40440-4 0  9995
2 05118  81.2546  82.3490 0046783 181.3226 178.7887 15.14824488703292
Epoch (UTC): 24 January 2021 13:48:31
Eccentricity: 0.0046783
inclination: 81.2546°
perigee height: 489 km
apogee height: 554 km
right ascension of ascending node: 82.3490°
argument of perigee: 181.3226°
revolutions per day: 15.14824488
mean anomaly at epoch: 178.7887°
orbit number at epoch: 70329

The dashed part of the orbit path shows where the satellite is in the earth's shadow,  

DLR